Time,TemperatureF,DewpointF,PressureIn,WindDirection,WindDirectionDegrees,WindSpeedMPH,WindSpeedGustMPH,Humidity,HourlyPrecipIn,Conditions,Clouds,dailyrainin,SoftwareType,DateUTC
2013-08-02 00:33:00,53.0,34.0,-100.00,ESE,110,0.0,3.0,47,-99.99,,,-99.99,,2013-08-02 07:33:00,
2013-08-02 07:12:00,42.0,34.0,-100.00,North,355,0.0,1.0,73,-99.99,,,-99.99,,2013-08-02 14:12:00,
2013-08-02 07:22:00,42.0,34.0,-100.00,North,355,0.0,1.0,73,-99.99,,,-99.99,,2013-08-02 14:22:00,
2013-08-02 08:32:00,44.0,37.0,-100.00,NE,40,0.0,1.0,76,-99.99,,,-99.99,,2013-08-02 15:32:00,
2013-08-02 08:43:00,45.0,38.0,-100.00,NE,45,0.0,1.0,76,-99.99,,,-99.99,,2013-08-02 15:43:00,
2013-08-02 09:12:00,51.0,43.0,-100.00,WNW,285,1.0,5.0,75,-99.99,,,-99.99,,2013-08-02 16:12:00,
2013-08-02 09:22:00,51.0,43.0,-100.00,WNW,285,1.0,5.0,75,-99.99,,,-99.99,,2013-08-02 16:22:00,
2013-08-02 09:32:00,54.0,44.0,-100.00,WNW,285,4.0,6.0,71,-99.99,,,-99.99,,2013-08-02 16:32:00,
2013-08-02 09:43:00,55.0,44.0,-100.00,West,280,2.0,6.0,67,-99.99,,,-99.99,,2013-08-02 16:43:00,
2013-08-02 09:52:00,57.0,45.0,-100.00,West,275,3.0,7.0,65,-99.99,,,-99.99,,2013-08-02 16:52:00,
2013-08-02 10:02:00,57.0,45.0,-100.00,West,275,3.0,7.0,65,-99.99,,,-99.99,,2013-08-02 17:02:00,
2013-08-02 10:12:00,58.0,45.0,-100.00,West,280,5.0,7.0,62,-99.99,,,-99.99,,2013-08-02 17:12:00,
2013-08-02 10:22:00,58.0,45.0,-100.00,West,280,5.0,7.0,62,-99.99,,,-99.99,,2013-08-02 17:22:00,
2013-08-02 10:34:00,58.0,45.0,-100.00,West,280,5.0,7.0,62,-99.99,,,-99.99,,2013-08-02 17:34:00,
2013-08-02 10:43:00,61.0,45.0,-100.00,WNW,290,3.0,7.0,57,-99.99,,,-99.99,,2013-08-02 17:43:00,
2013-08-02 10:52:00,61.0,45.0,-100.00,WNW,290,3.0,7.0,57,-99.99,,,-99.99,,2013-08-02 17:52:00,
2013-08-02 11:02:00,61.0,45.0,-100.00,WNW,290,3.0,7.0,57,-99.99,,,-99.99,,2013-08-02 18:02:00,
2013-08-02 11:22:00,65.0,47.0,-100.00,WNW,285,6.0,8.0,51,-99.99,,,-99.99,,2013-08-02 18:22:00,
2013-08-02 11:32:00,67.0,47.0,-100.00,WNW,290,5.0,7.0,49,-99.99,,,-99.99,,2013-08-02 18:32:00,
2013-08-02 11:43:00,69.0,47.0,-100.00,WNW,290,4.0,9.0,47,-99.99,,,-99.99,,2013-08-02 18:43:00,
2013-08-02 11:52:00,69.0,47.0,-100.00,WNW,290,4.0,9.0,47,-99.99,,,-99.99,,2013-08-02 18:52:00,
2013-08-02 12:02:00,71.0,48.0,-100.00,WNW,285,4.0,7.0,44,-99.99,,,-99.99,,2013-08-02 19:02:00,
2013-08-02 12:12:00,73.0,48.0,-100.00,WNW,300,4.0,7.0,42,-99.99,,,-99.99,,2013-08-02 19:12:00,
2013-08-02 12:22:00,73.0,48.0,-100.00,WNW,300,4.0,7.0,42,-99.99,,,-99.99,,2013-08-02 19:22:00,
2013-08-02 12:32:00,74.0,48.0,-100.00,WNW,290,4.0,7.0,40,-99.99,,,-99.99,,2013-08-02 19:32:00,
2013-08-02 12:43:00,76.0,49.0,-100.00,WNW,285,6.0,9.0,39,-99.99,,,-99.99,,2013-08-02 19:43:00,
2013-08-02 13:02:00,78.0,49.0,-100.00,WNW,285,1.0,9.0,36,-99.99,,,-99.99,,2013-08-02 20:02:00,
2013-08-02 15:12:00,84.0,45.0,-100.00,WSW,245,6.0,12.0,25,-99.99,,,-99.99,,2013-08-02 22:12:00,
2013-08-02 16:02:00,86.0,40.0,-100.00,South,170,2.0,9.0,20,-99.99,,,-99.99,,2013-08-02 23:02:00,
2013-08-02 16:12:00,86.0,40.0,-100.00,South,170,2.0,9.0,20,-99.99,,,-99.99,,2013-08-02 23:12:00,
2013-08-02 16:22:00,88.0,42.0,-100.00,WNW,300,3.0,13.0,20,-99.99,,,-99.99,,2013-08-02 23:22:00,
2013-08-02 16:32:00,89.0,41.0,-100.00,NNW,330,2.0,11.0,19,-99.99,,,-99.99,,2013-08-02 23:32:00,
2013-08-02 16:43:00,87.0,40.0,-100.00,SE,130,2.0,10.0,19,-99.99,,,-99.99,,2013-08-02 23:43:00,
2013-08-02 16:53:00,88.0,39.0,-100.00,West,270,5.0,11.0,18,-99.99,,,-99.99,,2013-08-02 23:53:00,
2013-08-02 17:02:00,88.0,39.0,-100.00,West,270,5.0,11.0,18,-99.99,,,-99.99,,2013-08-03 00:02:00,
2013-08-02 17:12:00,88.0,39.0,-100.00,West,270,5.0,11.0,18,-99.99,,,-99.99,,2013-08-03 00:12:00,
2013-08-02 17:32:00,88.0,38.0,-100.00,ESE,115,2.0,9.0,17,-99.99,,,-99.99,,2013-08-03 00:32:00,
2013-08-02 17:52:00,88.0,39.0,-100.00,West,275,4.0,9.0,18,-99.99,,,-99.99,,2013-08-03 00:52:00,
2013-08-02 18:02:00,88.0,39.0,-100.00,West,275,4.0,9.0,18,-99.99,,,-99.99,,2013-08-03 01:02:00,
2013-08-02 18:12:00,88.0,39.0,-100.00,ENE,75,1.0,11.0,18,-99.99,,,-99.99,,2013-08-03 01:12:00,
2013-08-02 18:22:00,88.0,39.0,-100.00,ENE,75,1.0,11.0,18,-99.99,,,-99.99,,2013-08-03 01:22:00,
2013-08-02 18:42:00,86.0,40.0,-100.00,West,280,2.0,6.0,20,-99.99,,,-99.99,,2013-08-03 01:42:00,
2013-08-02 18:53:00,86.0,40.0,-100.00,West,280,2.0,6.0,20,-99.99,,,-99.99,,2013-08-03 01:53:00,
2013-08-02 19:02:00,86.0,40.0,-100.00,WSW,245,2.0,6.0,20,-99.99,,,-99.99,,2013-08-03 02:02:00,
2013-08-02 19:12:00,86.0,40.0,-100.00,WSW,245,2.0,6.0,20,-99.99,,,-99.99,,2013-08-03 02:12:00,
2013-08-02 19:22:00,85.0,42.0,-100.00,West,280,4.0,7.0,22,-99.99,,,-99.99,,2013-08-03 02:22:00,
2013-08-02 19:43:00,83.0,42.0,-100.00,WSW,250,1.0,9.0,23,-99.99,,,-99.99,,2013-08-03 02:43:00,
2013-08-02 19:52:00,83.0,42.0,-100.00,WSW,250,1.0,9.0,23,-99.99,,,-99.99,,2013-08-03 02:52:00,
2013-08-02 20:02:00,82.0,42.0,-100.00,WNW,285,2.0,7.0,24,-99.99,,,-99.99,,2013-08-03 03:02:00,
2013-08-02 20:12:00,80.0,42.0,-100.00,West,280,1.0,2.0,26,-99.99,,,-99.99,,2013-08-03 03:12:00,
2013-08-02 20:22:00,80.0,42.0,-100.00,West,280,1.0,2.0,26,-99.99,,,-99.99,,2013-08-03 03:22:00,
2013-08-02 20:32:00,77.0,42.0,-100.00,SE,130,1.0,3.0,28,-99.99,,,-99.99,,2013-08-03 03:32:00,
2013-08-02 20:43:00,74.0,41.0,-100.00,ESE,110,1.0,4.0,30,-99.99,,,-99.99,,2013-08-03 03:43:00,
2013-08-02 20:53:00,72.0,40.0,-100.00,SE,130,1.0,4.0,32,-99.99,,,-99.99,,2013-08-03 03:53:00,
2013-08-02 21:02:00,72.0,40.0,-100.00,SE,130,1.0,4.0,32,-99.99,,,-99.99,,2013-08-03 04:02:00,
2013-08-02 21:12:00,70.0,41.0,-100.00,SE,135,1.0,4.0,34,-99.99,,,-99.99,,2013-08-03 04:12:00,
2013-08-02 21:22:00,70.0,41.0,-100.00,SE,135,1.0,4.0,34,-99.99,,,-99.99,,2013-08-03 04:22:00,
2013-08-02 21:43:00,67.0,41.0,-100.00,SE,125,2.0,3.0,38,-99.99,,,-99.99,,2013-08-03 04:43:00,
2013-08-02 21:53:00,67.0,41.0,-100.00,SE,125,2.0,3.0,38,-99.99,,,-99.99,,2013-08-03 04:53:00,
2013-08-02 22:02:00,66.0,40.0,-100.00,North,355,0.0,2.0,39,-99.99,,,-99.99,,2013-08-03 05:02:00,
2013-08-02 22:22:00,65.0,40.0,-100.00,North,10,1.0,2.0,40,-99.99,,,-99.99,,2013-08-03 05:22:00,
2013-08-02 22:32:00,64.0,40.0,-100.00,SE,130,1.0,2.0,42,-99.99,,,-99.99,,2013-08-03 05:32:00,
2013-08-02 22:42:00,63.0,40.0,-100.00,SSE,165,1.0,3.0,43,-99.99,,,-99.99,,2013-08-03 05:42:00,
2013-08-02 22:52:00,63.0,40.0,-100.00,SSE,165,1.0,3.0,43,-99.99,,,-99.99,,2013-08-03 05:52:00,
2013-08-02 23:32:00,61.0,40.0,-100.00,East,85,1.0,2.0,46,-99.99,,,-99.99,,2013-08-03 06:32:00,
2013-08-02 23:42:00,60.0,40.0,-100.00,SW,215,0.0,3.0,48,-99.99,,,-99.99,,2013-08-03 06:42:00,
2013-08-02 23:52:00,60.0,40.0,-100.00,SW,215,0.0,3.0,48,-99.99,,,-99.99,,2013-08-03 06:52:00,